GFSGL_sfc_dewp_087.txt.gz
Dewpoint
69 69 66 66 67 68 69 69 68 67 66 66 66 66 66 66 67 67 67 66 65 65 66 65 65 66 66 66 66 66 66 64 61 61 62 63 63 64 63 62 62 62 63
68 69 69 69 70 70 69 68 67 66 66 65 65 65 65 66 65 65 65 66 65 64 64 64 64 66 65 65 65 65 66 62 61 59 61 62 62 62 61 61 61 62 62
68 68 68 69 69 68 68 67 67 66 65 64 64 64 64 65 64 64 64 64 64 64 64 64 64 64 64 64 65 65 65 63 61 60 59 59 61 62 60 61 60 61 62
66 68 69 69 68 67 68 67 67 67 66 65 65 64 62 63 63 64 64 64 64 63 63 63 63 64 64 63 64 64 63 62 62 61 60 58 59 60 60 59 58 59 59
68 68 68 68 68 68 68 68 68 67 67 67 66 62 60 61 63 64 64 64 63 62 62 62 60 62 65 64 62 60 60 61 61 60 59 59 58 59 59 59 58 58 58
69 68 68 68 67 67 68 68 68 67 67 65 64 62 61 61 60 61 64 63 63 62 62 59 59 64 63 64 63 62 60 60 59 59 58 58 58 59 59 59 58 56 55
68 68 68 68 67 67 67 67 67 66 65 64 64 63 62 61 59 58 61 64 62 62 62 60 59 61 62 62 62 61 61 60 61 60 59 59 59 59 59 59 58 57 55
68 68 68 67 66 66 65 65 65 66 65 65 64 64 63 62 59 57 59 62 61 61 62 61 60 60 60 61 61 61 60 59 59 59 59 58 58 59 59 59 59 57 57
66 65 65 65 64 64 64 63 63 64 65 65 64 64 63 63 57 55 58 61 62 62 61 61 61 61 59 58 60 59 59 59 59 59 58 58 57 57 58 59 57 57 56
63 63 62 62 63 62 63 64 64 62 62 65 65 64 62 63 56 53 56 59 61 61 61 61 59 60 57 55 60 59 58 58 59 59 59 57 56 57 58 59 58 57 56
62 62 61 61 62 62 61 62 62 62 61 61 62 64 64 63 61 52 52 59 59 60 61 61 61 56 53 52 56 60 59 58 58 58 57 57 56 55 56 58 58 58 57
59 59 59 60 60 61 59 59 60 61 61 61 60 60 63 64 58 51 50 54 58 58 59 61 61 55 51 50 52 55 55 57 58 57 56 56 58 58 57 57 56 57 58
63 62 62 62 61 61 59 60 61 61 60 59 60 60 63 65 63 54 50 54 56 59 59 58 56 55 52 50 52 52 53 59 57 56 56 58 58 59 57 57 56 57 56
56 57 59 59 62 63 62 63 64 62 61 60 60 61 63 63 64 60 58 58 57 60 59 60 57 56 55 57 56 55 54 53 56 57 57 56 57 58 59 59 57 58 58
54 55 56 58 59 59 61 58 57 63 60 62 61 62 62 64 64 57 57 60 61 60 60 58 56 54 55 57 57 57 54 53 51 51 51 51 52 52 55 59 58 58 58
53 53 53 55 56 58 59 61 50 47 45 46 48 58 62 57 52 51 50 51 52 50 59 60 57 56 56 56 57 57 56 55 55 53 53 52 53 53 53 55 57 59 57
52 52 53 54 57 56 58 59 59 55 46 46 43 44 50 53 49 49 48 47 48 50 61 61 60 57 57 57 58 59 58 59 58 57 56 55 56 55 55 55 55 55 53
55 52 52 52 54 57 58 59 60 57 55 53 48 47 42 44 46 45 45 50 54 55 61 60 60 60 60 59 59 58 58 58 57 57 56 56 57 56 56 55 55 55 55
56 57 57 55 55 53 56 58 59 58 57 56 55 50 45 43 45 47 48 60 59 57 59 58 58 58 58 58 58 58 57 56 55 55 54 54 54 54 53 53 53 50 51
54 54 55 56 56 56 55 55 57 58 57 57 56 55 55 55 56 55 56 57 57 57 59 58 57 57 57 57 55 54 53 52 52 51 51 50 50 50 50 49 49 48 48
53 52 53 52 55 56 56 55 54 56 55 56 57 54 48 57 56 55 56 57 58 59 58 57 56 55 54 53 52 51 50 50 50 50 50 51 50 49 48 48 48 51 51
52 51 51 51 52 53 56 55 54 54 57 57 57 55 48 58 58 57 56 56 56 57 57 56 54 53 53 52 51 49 48 48 48 48 47 48 48 48 48 48 48 49 48
52 52 52 52 52 51 53 55 56 56 56 58 57 55 55 55 55 55 55 54 54 54 53 52 50 47 47 47 47 47 43 40 39 41 41 44 45 45 45 46 47 45 44
52 53 53 53 53 53 54 56 55 53 57 56 55 55 55 55 54 53 52 52 50 49 48 47 45 41 37 36 35 34 34 33 33 35 38 41 43 43 44 44 43 43 43
53 52 52 52 52 52 55 55 55 55 54 53 52 53 53 53 51 50 49 49 47 44 40 36 34 34 32 30 29 28 29 29 30 31 40 42 42 41 42 41 41 40 40
51 52 51 51 51 51 53 53 53 52 53 53 53 53 54 51 50 47 46 45 43 38 35 33 31 29 28 27 26 28 28 29 30 32 34 30 27 28 32 31 33 38 37

GFSGL_sfc_dewp_093.txt.gz
Dewpoint
73 74 74 73 72 70 69 69 71 73 73 72 72 71 71 71 72 72 71 71 70 69 69 69 70 71 68 69 71 71 70 70 67 68 67 68 67 66 66 66 66 66 65
73 74 73 71 69 68 67 67 73 73 72 72 71 71 70 70 70 70 68 67 68 69 69 70 69 69 71 71 69 70 69 69 68 67 65 65 65 65 63 63 64 65 65
73 72 69 68 68 68 67 70 73 72 71 70 70 70 69 69 68 69 69 69 69 68 69 69 69 69 69 68 69 69 69 70 69 67 64 64 63 63 62 62 63 64 64
71 69 68 68 68 69 72 73 72 72 71 70 69 69 69 68 69 69 68 68 69 69 69 69 68 69 69 69 68 69 68 67 66 65 63 62 63 63 62 60 60 63 63
68 68 69 70 70 72 72 73 72 71 70 69 69 68 67 67 66 68 68 67 68 67 68 68 69 68 67 67 66 68 67 66 64 63 62 62 62 61 60 61 60 61 61
70 69 70 70 71 72 72 72 71 71 70 70 69 67 67 64 61 62 66 67 67 67 67 68 67 64 63 64 65 65 67 66 64 62 62 62 62 63 62 61 60 58 58
70 70 71 70 70 72 72 71 71 71 71 70 69 68 68 67 59 59 63 66 67 67 67 67 65 60 63 65 64 62 63 62 64 65 62 62 62 63 62 61 60 60 59
65 70 70 70 71 72 72 72 72 71 71 70 69 69 69 68 59 57 60 67 67 67 67 67 66 64 64 65 66 65 65 65 65 62 65 65 64 63 63 62 61 61 59
61 69 70 70 70 71 71 72 72 71 71 70 70 70 69 69 58 56 59 65 66 67 67 67 67 66 61 60 65 65 65 65 59 59 59 59 59 59 61 62 60 58 59
65 65 65 66 66 67 67 67 67 69 68 67 67 68 66 69 60 55 58 63 63 63 67 67 61 64 57 57 65 65 64 65 65 63 63 61 61 61 59 63 61 60 60
63 63 63 63 63 64 65 65 65 65 64 65 65 65 66 65 66 56 54 65 63 62 61 63 63 57 53 53 56 65 63 64 64 65 64 63 63 63 61 63 63 61 59
63 63 64 64 64 65 66 67 65 65 65 65 64 63 63 67 60 59 54 55 63 65 63 63 63 54 52 51 54 56 54 59 62 62 62 62 62 61 62 62 63 63 62
60 60 61 61 62 64 64 64 63 63 63 63 64 63 63 63 65 56 54 53 55 65 68 65 58 51 50 51 52 52 53 62 61 61 60 60 61 61 63 63 63 64 64
58 59 60 60 60 62 61 61 62 64 64 64 63 63 63 64 64 65 66 60 54 58 62 62 62 59 57 60 57 56 62 63 61 60 60 61 61 61 61 61 60 61 60
58 58 58 58 59 60 60 61 60 60 55 57 58 60 61 62 63 59 59 58 58 59 61 62 63 64 63 63 63 64 64 63 63 62 64 62 60 60 61 61 61 60 59
58 57 56 55 57 58 59 61 51 49 45 44 43 44 53 52 48 45 47 46 49 51 61 62 62 62 62 62 61 58 58 58 59 58 58 59 59 59 58 60 61 60 59
59 58 55 53 55 57 57 59 58 57 46 45 45 43 42 42 42 44 44 44 45 50 62 62 61 62 61 60 60 59 58 58 58 57 57 56 56 57 56 58 57 57 58
57 53 55 55 54 54 56 58 59 58 58 58 52 49 47 44 43 44 42 49 56 54 62 62 62 63 61 60 60 60 59 57 57 56 57 57 56 56 56 57 58 58 59
54 55 56 55 54 54 55 55 58 58 58 59 58 54 54 49 45 43 46 60 60 59 60 63 64 64 62 60 59 59 59 58 58 57 57 57 57 57 56 55 54 51 53
54 54 53 53 53 53 53 53 54 58 58 58 58 59 59 56 59 58 58 59 60 59 59 58 59 58 58 57 56 56 56 55 55 55 55 55 55 55 54 54 54 53 54
52 52 53 51 51 50 51 51 54 56 57 58 59 56 45 59 58 58 58 58 58 58 57 56 56 56 57 56 55 55 55 54 55 54 55 55 55 54 54 53 52 51 50
52 52 53 53 54 54 53 52 53 55 58 58 58 56 49 57 56 56 55 55 55 55 56 56 54 54 55 55 55 54 53 53 53 53 53 52 52 52 52 51 50 49 46
53 53 54 55 55 54 55 56 57 57 59 58 58 57 56 55 55 55 54 54 54 54 54 53 52 52 52 52 53 52 51 51 52 53 53 53 51 50 49 48 47 45 42
52 53 54 54 54 56 56 56 58 53 57 57 57 56 56 55 53 53 53 52 52 52 52 50 49 46 45 42 41 41 42 44 47 49 50 48 48 46 48 48 47 47 46
53 54 55 55 55 55 56 56 57 58 57 57 56 56 55 54 53 52 53 52 52 50 46 42 39 39 38 37 36 35 33 32 42 41 45 46 46 47 47 46 46 44 44
53 55 55 56 56 56 56 56 56 56 56 57 55 54 54 52 51 50 50 49 47 43 38 37 36 36 35 35 35 32 31 32 38 36 43 43 42 41 41 41 42 40 40

GFSGL_sfc_dewp_096.txt.gz
Dewpoint
74 74 75 74 75 76 74 72 70 71 73 73 73 72 72 72 72 73 73 71 70 71 70 70 70 72 72 72 73 73 73 72 69 70 71 69 69 68 68 68 66 67 65
74 75 74 74 75 74 71 70 70 72 73 73 72 71 70 70 71 71 70 69 69 69 69 69 69 67 71 73 71 72 72 72 70 68 70 68 68 68 67 66 65 66 66
74 74 73 73 73 71 69 69 70 72 73 71 70 70 70 69 70 70 69 68 68 68 68 69 69 69 71 69 70 70 70 70 70 69 67 66 65 65 63 63 63 64 65
72 72 72 72 71 68 69 68 70 73 72 70 70 69 69 68 68 68 68 68 69 68 68 68 68 68 69 69 69 71 70 70 70 69 66 64 64 64 63 61 61 64 63
71 70 71 70 68 68 69 72 73 73 70 70 69 69 68 67 65 68 68 68 68 68 67 68 68 68 67 68 67 69 69 68 66 66 64 63 63 61 60 61 61 62 63
70 71 71 71 70 70 72 73 72 72 71 71 69 68 67 64 62 64 66 66 66 66 66 67 67 67 66 64 65 65 67 69 67 64 64 63 63 63 63 61 61 60 59
69 71 71 71 70 70 72 72 72 72 72 71 70 69 68 68 61 61 63 66 65 66 66 66 64 61 65 64 63 64 64 65 64 67 66 65 64 64 64 63 62 61 61
68 70 71 72 70 71 72 72 73 72 71 71 70 70 69 68 59 58 60 67 66 66 66 65 66 65 65 63 63 65 65 67 66 64 67 68 67 66 65 64 63 63 60
64 65 71 72 71 72 72 73 74 74 74 72 72 71 71 70 58 57 60 66 65 65 65 66 66 66 61 59 64 64 65 65 61 60 60 61 61 61 63 63 60 59 60
65 67 70 72 72 72 72 71 72 72 71 70 71 71 67 71 61 56 59 64 64 63 66 66 62 64 57 57 65 66 65 64 65 64 64 61 62 63 60 65 62 59 60
66 65 65 65 67 68 68 70 70 70 69 69 69 70 70 69 69 55 54 66 65 66 63 62 62 59 54 54 57 66 66 64 64 66 63 63 63 64 63 64 65 62 61
62 62 63 65 66 67 68 68 67 67 67 67 67 66 65 68 60 58 55 55 62 66 65 66 63 55 53 52 55 57 56 60 65 62 62 62 61 61 61 63 66 65 63
61 62 63 63 63 64 65 65 63 65 63 63 62 63 64 64 65 56 55 54 55 61 64 63 58 53 52 53 53 54 54 62 60 60 62 61 60 60 64 65 64 65 65
60 60 61 61 61 62 59 60 61 61 62 63 62 61 61 62 62 64 66 65 57 60 60 62 62 61 60 60 58 57 62 62 60 61 64 64 66 60 60 61 61 61 60
59 59 59 58 60 59 61 59 59 61 58 59 57 56 56 58 60 53 53 62 65 61 60 62 61 63 64 64 63 62 62 64 66 67 68 68 64 62 60 61 60 61 59
59 57 56 55 55 57 57 59 52 51 47 45 45 48 55 50 46 44 44 44 46 50 59 62 61 63 62 63 64 66 66 64 68 67 65 64 63 63 62 62 66 64 59
58 57 54 53 53 54 55 56 57 56 48 45 44 43 43 46 43 42 41 42 44 48 61 63 63 63 63 63 63 62 61 62 62 62 60 60 60 59 57 58 60 59 60
57 54 54 53 52 51 51 52 54 55 55 56 49 49 49 45 44 42 42 47 57 53 62 64 64 64 63 63 62 62 61 60 58 58 58 58 57 57 56 57 57 58 58
53 51 52 52 52 52 51 52 51 55 57 56 56 54 53 50 45 44 43 58 61 61 61 62 63 63 63 63 63 63 61 59 57 57 57 57 57 57 56 57 56 53 54
51 54 53 51 49 50 49 48 47 51 56 57 57 57 57 56 58 59 60 60 60 60 60 59 60 58 59 58 58 57 56 56 56 56 57 56 56 56 55 54 54 54 54
48 48 52 49 48 47 48 48 48 48 55 58 60 56 46 57 58 58 57 58 57 57 58 58 59 58 58 57 57 57 56 56 56 56 56 55 56 55 56 56 56 55 55
50 49 49 49 50 50 50 49 48 48 57 57 56 56 48 57 57 57 56 56 57 57 57 57 57 57 57 56 56 56 55 56 56 56 56 55 54 54 53 52 51 50 50
50 50 52 52 51 51 51 50 51 55 58 57 56 55 54 56 55 55 54 55 55 54 55 56 56 55 56 57 57 57 55 55 54 55 54 52 52 52 52 51 50 47 43
50 52 52 52 54 52 55 56 57 53 58 58 55 54 55 55 54 54 53 53 53 53 54 52 51 51 51 50 51 51 51 53 53 53 53 51 50 47 47 45 42 42 41
51 53 55 55 55 55 55 55 57 58 58 57 57 57 56 55 54 54 54 56 55 50 45 45 46 46 44 42 41 42 39 34 46 42 45 45 44 46 43 43 44 43 43
49 51 52 53 54 55 55 55 56 57 57 58 57 57 57 54 54 54 54 53 51 47 43 42 41 42 41 39 38 35 32 32 39 35 41 42 41 41 41 42 42 39 40

GFSGL_sfc_dewp_102.txt.gz
Dewpoint
77 77 77 76 77 77 77 76 77 75 75 74 73 73 74 74 74 75 74 73 73 72 72 71 70 70 71 71 70 70 70 70 67 68 70 70 69 69 70 70 68 68 65
77 76 76 77 77 76 77 77 76 74 74 75 75 75 74 73 74 73 72 71 72 71 72 72 70 70 70 70 70 69 69 69 68 65 68 69 70 70 70 69 68 68 68
76 76 76 77 77 76 76 77 76 74 74 73 74 74 72 73 73 73 72 72 71 71 72 71 71 70 70 70 70 69 71 70 70 68 68 69 68 68 67 66 66 67 67
74 74 75 76 76 76 76 76 74 73 73 73 74 73 72 72 72 71 72 72 72 71 72 72 71 71 70 71 71 71 71 71 70 70 69 67 66 65 65 63 62 64 64
74 73 73 74 75 75 75 74 73 73 73 74 74 73 72 71 67 71 70 71 71 71 71 71 71 70 69 69 70 70 70 69 69 68 68 67 65 62 62 63 62 63 64
67 64 64 64 66 67 72 72 72 73 74 74 72 71 71 66 63 66 69 69 70 71 70 70 70 68 68 67 67 67 69 69 68 67 67 65 64 63 63 62 62 61 61
67 66 65 64 64 64 65 69 72 73 75 74 73 72 71 72 62 62 64 70 71 70 70 70 67 63 67 68 65 64 65 65 67 69 68 67 66 65 64 62 62 61 61
67 66 65 64 65 65 64 65 70 72 74 73 73 73 73 71 60 60 62 70 69 70 70 70 69 68 69 68 68 67 66 66 65 65 68 69 70 68 64 63 63 62 63
65 66 67 67 67 66 65 68 71 71 72 73 73 73 73 73 58 58 63 69 68 69 68 70 69 69 65 61 68 68 67 67 61 63 65 63 64 63 65 64 63 61 61
65 65 66 67 67 65 66 70 71 71 71 73 73 74 69 74 57 57 61 68 67 66 69 69 63 65 61 57 66 67 66 67 66 65 64 62 64 64 62 65 63 61 61
65 65 65 66 66 65 65 64 66 65 68 70 70 72 71 71 69 56 54 68 69 69 68 68 67 58 55 53 58 68 65 66 66 67 66 66 66 66 65 66 65 62 61
63 64 64 65 65 65 66 65 66 66 63 61 66 68 70 71 63 55 54 56 65 69 68 70 69 55 53 51 52 57 57 60 67 68 67 65 64 64 65 65 66 65 63
62 63 64 64 65 65 65 65 66 67 63 64 65 65 66 65 66 56 54 54 55 61 67 62 56 54 55 54 52 53 54 63 64 66 65 64 64 63 65 65 65 66 67
62 63 63 63 62 63 61 62 63 64 62 63 62 62 62 63 63 61 60 60 58 61 60 63 63 59 56 59 60 58 60 63 64 64 65 67 68 67 64 64 64 65 65
62 62 62 59 61 62 63 61 61 63 59 61 60 61 60 60 58 51 52 57 58 56 52 59 63 63 64 64 65 65 66 65 64 66 66 65 65 66 66 67 65 64 63
60 59 57 57 57 58 60 62 55 53 50 48 47 53 60 53 49 46 43 43 43 43 50 56 61 63 62 62 62 63 63 63 63 64 64 64 64 64 65 65 65 64 61
60 60 56 55 56 59 59 59 58 58 48 46 45 45 44 45 43 43 42 42 42 42 53 60 62 62 62 64 63 64 63 64 64 65 64 62 61 61 61 62 62 63 62
60 53 56 55 54 53 55 56 55 52 58 59 50 48 46 44 43 42 43 47 58 50 58 61 63 63 63 63 64 65 64 63 64 62 61 61 60 60 59 58 59 60 61
54 52 53 52 52 51 53 54 53 53 54 59 60 50 49 45 42 44 47 58 58 59 60 60 61 61 60 62 63 64 65 63 63 63 61 60 59 59 57 58 56 52 54
54 53 53 52 50 51 51 50 50 55 58 54 59 60 58 55 58 58 58 58 57 57 58 58 58 58 58 58 60 61 59 58 58 58 58 58 58 58 57 56 56 55 55
52 51 53 48 49 51 50 53 52 51 51 57 59 54 47 57 56 56 57 57 58 58 58 57 58 57 57 57 57 57 57 56 56 56 56 56 57 56 56 56 55 56 55
52 51 51 50 55 54 53 53 52 53 55 56 58 55 50 56 56 56 56 57 57 58 59 59 58 58 57 57 57 56 56 56 56 56 56 56 56 56 56 56 56 55 55
50 49 50 54 55 54 53 52 53 55 56 56 54 54 55 55 55 55 56 56 57 56 57 58 57 57 58 58 58 57 56 56 57 57 57 57 56 56 56 55 55 54 54
54 54 51 54 54 51 54 53 54 51 54 53 55 58 54 54 54 56 56 56 55 54 54 53 52 53 57 58 58 57 53 56 58 57 57 56 56 53 53 53 52 52 48
49 48 49 53 52 52 52 53 54 53 55 58 58 58 55 54 53 54 55 55 54 53 51 51 51 49 49 50 50 46 36 33 43 42 56 56 54 55 53 52 50 46 46
42 50 47 52 51 52 54 54 53 54 55 57 59 59 59 59 59 57 55 56 54 51 50 49 48 47 45 41 40 36 33 31 37 33 42 51 50 49 47 48 48 46 46

GFSGL_sfc_dewp_105.txt.gz
Dewpoint
74 74 73 71 75 75 72 74 73 72 71 70 70 71 71 71 73 72 72 71 71 70 70 69 68 69 69 69 68 68 67 67 64 66 67 68 67 68 68 68 67 65 65
75 74 74 73 74 74 75 75 73 74 71 70 70 70 71 72 72 72 72 72 70 70 70 69 68 69 68 68 68 68 68 68 66 64 66 67 68 68 67 67 66 67 65
75 75 75 76 72 75 73 74 75 72 70 71 71 71 71 72 72 72 72 70 70 70 70 69 68 68 68 68 67 67 67 67 66 65 65 66 66 67 66 65 64 64 66
74 72 70 68 67 70 72 72 74 72 70 72 72 72 71 70 71 71 71 70 69 70 69 69 69 68 68 68 68 68 68 68 67 66 65 65 65 65 64 63 63 64 64
64 64 64 64 65 65 65 66 66 72 71 72 72 72 71 70 70 70 70 70 69 68 69 69 69 69 68 68 69 68 68 67 67 66 65 65 63 62 62 63 63 63 63
66 65 65 65 65 65 65 64 64 64 70 72 72 70 70 68 64 66 69 69 68 67 68 68 67 69 68 66 67 68 68 67 65 65 64 63 63 62 63 62 63 61 60
66 65 64 64 64 64 65 65 66 63 64 71 70 69 69 68 62 63 66 68 68 68 68 68 68 68 66 66 65 65 66 66 66 66 64 63 62 64 63 62 62 62 61
66 64 64 63 64 63 63 63 63 64 66 69 70 69 69 69 60 60 63 65 66 67 67 68 67 64 66 66 65 64 64 64 64 65 66 66 65 65 64 63 63 62 62
66 66 65 64 64 63 62 62 62 64 65 69 70 70 69 68 58 58 60 65 64 65 66 66 66 66 64 62 66 64 64 64 62 61 63 64 64 63 63 63 62 61 60
62 64 64 66 64 63 63 64 67 68 69 69 66 68 67 69 59 59 61 65 64 65 66 66 63 64 61 58 63 65 64 64 64 62 61 61 62 62 61 64 63 61 61
63 63 63 63 63 63 62 62 63 63 62 63 64 65 66 65 66 58 58 67 67 67 66 66 66 58 55 54 55 65 63 64 64 63 63 63 63 63 64 64 63 62 61
61 61 62 62 63 63 62 63 63 63 63 61 61 63 64 66 59 57 55 55 57 64 67 67 63 55 55 52 53 55 54 58 66 65 64 64 64 64 64 65 65 63 63
60 59 60 61 62 61 61 62 62 62 62 61 62 63 62 65 62 56 56 54 56 59 62 60 55 54 53 54 53 54 54 61 64 65 65 65 64 64 64 64 65 64 63
59 58 59 60 59 61 59 59 60 59 59 59 59 59 60 60 58 58 57 57 56 58 57 56 57 57 58 60 59 56 58 60 61 63 64 64 64 64 63 64 63 64 63
58 58 57 56 57 58 60 59 59 56 57 58 58 58 56 56 55 50 50 54 54 53 49 54 55 59 60 61 61 62 62 61 61 62 64 65 65 65 64 64 64 63 62
56 57 57 55 54 56 56 57 53 53 48 47 46 52 57 52 44 43 43 43 42 42 48 52 55 59 60 60 61 61 60 61 62 62 63 63 63 64 64 64 64 63 63
56 56 55 54 55 55 56 57 55 55 47 46 45 44 44 47 43 43 43 42 43 44 50 57 59 60 61 61 61 61 62 62 62 63 63 63 62 61 61 61 61 62 62
55 53 53 55 54 51 51 51 53 51 52 57 48 48 44 42 43 44 44 46 55 48 56 59 60 61 61 61 63 63 63 62 63 62 62 61 60 59 59 59 59 60 60
54 54 53 53 51 50 50 51 52 53 52 54 55 49 47 43 43 44 44 55 57 57 57 58 58 58 58 58 59 62 61 62 61 61 60 60 60 59 57 56 56 52 54
54 54 53 52 51 52 52 51 51 52 53 56 59 57 56 53 55 55 54 56 57 57 56 57 57 57 57 57 57 58 58 58 58 58 58 58 58 57 57 56 56 55 55
53 52 54 52 53 54 53 53 53 56 58 57 55 53 48 57 56 55 55 55 55 57 57 56 57 57 56 56 56 56 56 56 56 56 56 56 56 55 56 55 55 55 54
51 51 52 52 54 54 54 54 55 55 57 57 55 52 48 56 56 55 55 55 55 55 58 55 56 56 55 54 54 55 55 56 56 56 56 56 56 56 56 55 55 54 54
51 52 52 53 53 53 54 54 54 54 54 55 57 56 55 55 54 54 55 55 55 54 55 56 56 57 57 57 57 56 56 55 56 56 56 55 55 55 55 55 55 54 54
49 52 51 51 53 52 53 53 54 52 54 56 57 56 54 55 54 54 55 55 54 52 50 52 54 55 55 56 55 49 52 55 56 55 54 56 55 53 55 55 55 54 52
46 48 48 51 51 51 52 52 53 53 53 56 57 56 55 55 55 55 55 55 55 52 50 50 49 47 46 46 44 41 35 32 40 41 55 55 54 54 53 52 50 47 44
46 47 45 47 51 51 53 53 53 54 54 55 56 56 55 55 56 56 55 56 54 51 50 48 47 43 41 40 38 35 32 31 34 32 39 51 53 51 52 50 45 44 43

GFSGL_sfc_dewp_111.txt.gz
Dewpoint
68 73 71 71 71 70 69 70 69 69 69 71 72 71 70 69 68 67 67 67 68 68 69 69 68 68 68 67 67 67 66 64 64 63 65 66 67 68 69 70 69 68 67
67 70 72 72 71 70 70 69 72 71 71 71 71 71 70 69 69 68 68 69 69 69 69 69 68 68 67 67 67 67 65 62 61 60 62 64 66 67 67 68 67 67 66
66 71 72 72 72 72 71 71 71 72 72 72 71 70 70 69 69 70 69 70 70 70 69 68 68 67 66 66 67 66 66 65 65 64 62 64 65 67 66 66 66 66 65
67 70 70 66 68 67 67 69 72 72 71 70 70 69 69 69 69 70 70 70 70 69 69 69 68 68 67 66 66 66 65 66 65 65 62 64 65 65 66 65 64 65 65
65 66 65 66 66 66 66 66 67 67 70 70 69 69 69 70 71 70 70 70 70 69 68 68 68 68 68 67 66 65 65 64 63 63 63 64 64 63 64 65 64 65 65
64 64 65 65 65 66 65 66 65 65 65 67 67 66 67 69 64 63 68 70 70 69 68 68 68 68 67 65 65 65 66 65 64 63 63 64 64 64 64 64 64 62 61
63 63 63 64 64 64 65 64 64 63 64 66 67 68 67 68 61 61 63 70 69 69 68 67 67 68 67 67 64 64 64 64 65 65 63 65 63 63 63 63 63 62 61
64 63 62 63 62 63 64 65 65 65 65 65 66 66 66 66 61 59 61 67 69 68 68 67 66 66 66 66 66 65 65 65 65 66 65 65 65 64 64 63 63 63 62
63 63 65 64 62 62 61 62 62 62 62 64 65 65 65 65 61 59 60 65 68 67 67 67 67 66 63 61 65 64 64 64 63 61 62 62 61 60 63 62 62 61 59
60 61 61 63 63 62 62 62 63 64 65 65 65 65 64 65 56 55 60 65 64 65 64 65 62 65 61 57 64 64 63 64 63 63 62 61 60 61 60 64 63 62 60
59 59 59 59 60 60 60 61 61 61 61 65 65 65 65 64 60 54 56 65 65 64 64 64 65 59 57 54 56 64 63 64 63 63 63 62 61 61 63 63 63 63 62
57 58 58 59 59 58 57 59 59 60 62 63 63 63 62 62 56 55 53 57 60 64 65 66 63 54 52 53 53 55 54 58 63 63 62 62 62 62 63 64 64 64 64
57 56 57 57 58 58 57 56 58 58 59 60 62 62 61 61 59 52 52 54 56 62 63 61 54 51 50 54 54 54 54 59 61 62 63 64 63 63 62 63 65 64 64
55 55 54 54 55 56 58 57 55 56 57 59 60 58 56 57 57 57 58 57 55 58 57 57 55 54 53 55 56 58 58 61 62 63 63 64 63 62 62 63 63 63 62
54 55 53 52 53 54 54 56 56 53 53 55 56 56 54 54 54 47 50 54 54 51 52 54 56 56 56 57 60 61 60 59 58 59 59 59 60 61 63 64 64 64 62
53 53 52 52 53 54 53 51 50 48 45 43 44 51 50 46 44 42 42 42 43 44 53 55 56 56 56 56 56 58 60 60 60 61 62 62 61 60 61 61 64 63 62
51 52 52 51 53 50 50 49 48 49 47 44 42 43 45 46 43 43 43 42 43 45 56 57 58 58 59 59 60 60 58 59 60 60 61 61 61 62 61 62 62 62 62
52 51 52 52 51 51 48 48 48 48 48 50 45 44 42 43 44 43 43 44 54 53 57 57 56 57 57 57 58 58 60 61 61 62 62 62 62 61 61 61 61 61 62
52 51 51 51 51 50 51 50 49 49 49 50 50 47 43 41 43 46 47 54 54 54 55 55 56 56 56 57 57 57 57 59 60 61 61 61 61 60 60 59 59 53 55
52 52 51 51 52 52 53 53 55 54 52 53 53 52 52 51 53 52 52 52 53 55 56 55 55 55 56 56 56 56 56 56 57 57 58 58 59 58 58 57 57 56 55
53 50 51 51 53 53 53 54 55 55 54 54 55 54 49 54 53 51 51 52 52 52 53 51 53 55 55 55 55 55 55 55 55 55 56 56 56 56 56 56 55 55 55
52 50 51 51 53 53 53 52 53 54 55 53 52 50 44 53 52 52 51 52 52 52 52 52 52 52 52 52 52 54 54 54 55 55 55 55 55 55 55 55 54 55 55
50 50 51 51 52 52 52 52 52 52 53 54 53 54 54 53 52 52 52 52 52 52 51 52 52 52 52 53 52 52 52 52 52 53 53 53 53 54 54 54 54 54 54
45 46 47 50 51 52 51 51 51 50 52 54 54 53 53 52 52 53 52 52 52 52 50 50 53 52 53 52 49 48 49 49 51 53 52 52 52 51 53 54 54 53 53
44 46 47 46 50 51 51 51 51 51 51 52 53 53 53 53 52 53 54 53 53 53 52 49 50 49 50 52 47 44 39 33 40 36 51 52 52 51 52 51 50 49 48
44 44 43 45 45 48 50 51 51 52 52 52 53 53 53 54 54 55 55 55 54 54 53 50 48 47 47 46 44 39 33 32 35 31 35 43 51 52 53 51 48 48 46

GFSGL_sfc_dewp_117.txt.gz
Dewpoint
69 72 73 72 73 73 73 72 72 73 73 72 73 73 73 73 73 73 73 72 72 72 72 72 72 72 70 70 71 71 70 70 67 66 68 70 71 71 72 72 72 73 72
68 68 68 72 73 72 73 73 72 72 72 72 72 72 72 72 73 73 72 72 72 72 72 72 72 70 72 72 71 71 70 71 68 68 71 67 70 71 71 72 72 72 71
67 67 67 67 67 72 73 72 73 73 72 71 72 72 72 72 73 73 73 72 72 72 72 72 72 71 71 71 71 71 71 70 69 69 66 67 69 70 69 70 71 71 71
66 67 68 68 69 68 73 74 72 73 73 72 72 72 72 73 73 72 72 72 72 72 72 71 71 70 71 72 72 71 70 68 68 68 67 68 67 69 69 67 67 69 69
66 66 66 67 71 72 73 73 73 72 73 73 73 73 73 73 72 73 72 72 73 72 71 71 71 71 70 71 71 72 70 68 68 68 67 66 66 66 66 67 66 66 68
66 65 66 66 66 68 68 68 67 67 66 68 71 72 73 73 67 66 71 73 72 71 70 71 72 70 70 66 66 67 70 70 68 66 66 65 66 66 66 66 66 65 63
65 64 64 65 65 66 67 67 66 66 66 66 67 67 69 72 64 63 66 73 71 70 70 71 71 70 70 71 66 64 65 65 66 70 69 68 68 69 69 68 67 65 64
64 66 65 65 64 65 66 66 67 67 67 66 66 66 67 69 61 59 63 72 72 72 72 72 73 72 71 71 70 70 70 70 69 68 70 70 71 71 71 70 69 68 67
63 63 63 65 64 63 64 65 66 66 66 66 67 67 67 68 58 58 63 70 71 72 72 73 72 72 66 63 70 70 70 69 64 63 63 63 63 63 66 68 66 65 63
61 61 62 64 64 64 64 65 66 66 65 65 66 67 65 67 57 55 62 67 67 68 70 70 63 68 60 58 70 70 69 69 69 68 69 66 64 67 61 69 68 65 63
61 62 63 62 62 63 64 65 65 66 66 67 66 66 67 66 66 54 56 66 66 68 68 68 69 57 55 55 57 73 69 71 68 69 68 67 68 68 67 68 70 69 65
61 61 61 63 61 60 64 64 65 65 65 65 64 63 63 62 54 53 53 59 63 67 68 69 68 56 52 51 55 57 54 60 70 70 67 66 71 71 72 67 69 69 72
60 60 60 61 61 62 62 64 62 64 64 64 61 61 61 61 60 53 52 54 57 66 68 63 56 53 52 53 53 54 55 66 68 67 68 69 66 69 70 69 69 70 69
59 59 59 59 60 61 59 58 60 61 61 60 57 57 57 58 59 59 58 60 58 60 60 60 58 57 55 57 59 60 64 65 65 66 66 67 68 68 67 67 66 66 66
58 57 58 57 59 58 60 58 57 58 55 57 57 57 57 57 54 47 51 56 56 52 58 61 61 61 61 60 60 60 61 61 61 63 65 66 67 68 66 66 66 65 64
57 55 55 55 55 54 55 55 48 46 44 43 45 53 55 47 44 43 43 44 45 46 58 59 59 59 61 61 61 60 61 62 63 64 64 64 64 64 64 64 65 66 63
57 57 55 54 54 54 54 53 54 50 44 43 42 43 45 45 43 43 44 45 46 49 57 57 58 58 59 59 60 61 61 61 62 63 63 64 63 64 63 63 63 63 63
56 51 53 54 53 54 54 53 50 52 53 55 46 47 42 42 42 43 46 48 55 55 56 56 57 57 56 57 57 58 58 59 61 62 62 63 63 63 63 63 62 62 63
54 54 54 54 55 54 57 54 52 53 53 54 54 49 46 42 43 46 48 55 54 55 55 55 56 56 56 57 58 58 59 59 59 60 60 61 61 61 61 62 62 55 58
55 53 53 55 54 55 55 56 56 57 57 56 54 55 54 52 57 57 57 57 56 55 55 56 56 57 56 57 57 57 57 57 58 59 59 59 59 60 59 59 60 59 60
53 52 53 53 53 54 55 56 57 57 56 56 57 55 49 57 57 56 56 56 56 57 57 56 55 57 57 57 57 57 56 56 57 57 58 57 58 57 58 59 58 58 58
53 52 51 51 53 53 52 54 54 53 54 54 55 54 45 55 56 55 55 56 55 57 57 57 55 56 56 57 58 57 56 57 57 57 57 57 56 56 56 57 57 57 57
52 52 52 53 53 52 51 50 49 49 48 50 53 54 55 56 56 55 55 56 56 56 56 56 55 54 56 57 57 57 55 57 57 57 55 55 55 55 56 56 56 56 56
46 48 49 50 52 51 51 50 50 48 49 49 51 55 54 56 56 56 55 55 55 55 55 54 54 53 55 55 55 54 53 55 56 55 56 54 54 53 54 54 53 54 54
45 45 46 48 48 48 50 51 51 50 50 50 49 52 52 54 55 56 56 55 55 54 54 54 53 52 52 53 51 51 45 37 49 40 53 51 53 55 54 54 54 54 53
40 46 46 47 50 50 48 45 47 48 49 51 51 52 52 51 50 55 56 57 56 54 54 54 55 55 53 51 51 45 38 35 42 34 45 48 47 49 55 54 53 51 51

GFSGL_sfc_dewp_123.txt.gz
Dewpoint
67 69 71 73 75 74 75 76 76 77 77 76 76 75 76 77 76 77 76 75 75 76 76 75 74 74 70 72 73 72 71 71 69 66 69 74 75 73 71 71 72 73 73
67 68 68 68 70 73 75 75 76 76 76 76 76 76 76 76 77 76 76 73 74 75 75 75 73 72 74 75 71 74 71 71 67 71 70 67 73 73 73 74 71 70 73
65 66 66 66 67 69 71 75 74 76 76 76 75 76 75 76 76 76 76 75 74 74 74 74 75 73 75 73 73 71 71 72 71 68 67 66 67 69 72 73 72 75 71
64 66 67 67 68 68 70 72 73 75 75 76 76 75 75 75 75 75 75 75 75 73 74 74 75 74 75 76 74 75 74 70 71 71 68 65 66 71 69 68 70 70 68
66 66 67 69 69 70 71 71 73 75 75 74 75 74 75 75 73 75 75 75 75 74 75 74 75 74 71 73 72 73 75 71 69 69 66 64 68 67 68 67 66 66 70
66 66 68 69 69 68 69 71 75 73 74 75 75 75 75 75 68 66 72 75 74 73 74 74 75 72 71 66 67 67 72 73 73 67 65 66 72 70 68 66 64 68 62
66 67 67 68 68 68 67 68 70 72 71 73 74 73 73 73 63 63 64 75 75 75 75 76 73 73 71 70 67 66 67 66 68 73 72 72 72 72 72 72 71 68 66
66 65 66 67 67 68 67 67 68 68 68 67 67 68 68 69 63 61 63 73 75 74 74 75 75 75 73 71 71 70 71 71 71 70 73 73 73 75 74 72 73 72 70
62 62 62 65 66 66 66 68 68 69 69 66 67 68 68 69 61 60 62 69 70 73 74 74 74 74 67 62 72 72 71 69 65 65 65 63 63 63 67 68 68 67 64
62 63 64 63 65 65 66 67 69 69 69 71 71 70 66 70 59 57 62 70 67 68 72 74 66 71 63 60 71 72 71 71 71 70 69 67 65 69 64 71 67 64 64
64 64 64 64 64 64 67 66 67 68 69 70 69 70 69 66 64 54 55 67 69 71 71 74 74 59 58 56 59 70 68 69 69 70 71 70 69 69 69 70 71 69 68
64 62 62 63 63 62 67 67 68 68 66 67 67 65 64 66 54 54 53 54 61 68 70 70 69 57 55 55 59 57 57 60 69 68 69 70 73 70 69 70 73 74 74
64 63 62 63 63 64 64 66 67 66 64 63 63 63 62 64 64 54 52 54 57 65 69 64 56 52 53 56 55 56 57 66 67 66 66 67 68 67 69 70 71 73 73
63 63 62 62 61 66 63 57 64 67 67 61 61 61 60 60 61 63 64 64 59 63 61 61 59 59 57 59 59 59 64 66 67 67 66 66 67 67 66 67 65 66 67
61 58 59 56 60 59 60 57 57 56 53 57 59 59 57 56 54 49 51 61 61 58 60 63 63 63 63 64 65 65 66 67 66 65 67 67 66 66 66 66 66 65 64
60 53 53 53 56 52 56 56 49 47 46 44 44 50 55 48 47 46 47 47 48 49 60 62 63 62 61 60 60 61 61 61 63 64 65 64 63 64 63 65 66 67 66
63 57 53 52 50 52 52 51 54 53 46 44 44 44 44 46 46 46 45 46 47 50 58 59 60 59 59 60 59 61 61 63 65 63 62 63 64 65 66 63 62 62 64
56 53 50 52 49 49 50 49 48 52 53 56 47 49 44 44 44 45 46 48 55 54 55 55 57 58 58 59 59 59 60 60 61 62 63 64 63 63 63 63 63 63 63
52 51 52 51 52 51 52 47 45 48 51 56 56 51 48 44 45 44 45 56 52 52 54 56 57 57 57 58 58 59 60 59 60 61 61 62 62 62 62 62 62 55 57
50 54 52 52 51 49 48 49 48 48 50 50 52 54 56 55 56 58 56 54 53 52 54 55 56 57 57 58 58 58 58 58 59 58 59 59 60 59 58 59 59 59 59
46 50 53 48 46 45 46 46 53 49 55 53 59 55 50 54 56 56 53 52 52 52 52 53 53 55 56 57 56 55 54 54 56 55 54 55 56 55 57 56 55 56 56
48 44 48 44 50 46 46 46 45 48 53 53 56 53 50 53 53 54 55 54 52 53 53 54 51 51 50 53 55 53 52 52 53 53 53 52 54 53 53 53 54 54 55
47 45 45 46 47 47 44 44 45 46 45 44 45 52 52 49 48 48 50 53 55 56 54 53 52 49 50 53 53 53 51 55 52 52 52 51 51 51 54 53 54 52 53
45 46 45 45 44 44 45 44 45 43 43 42 43 45 44 47 46 49 51 53 56 52 51 51 51 49 53 53 53 51 50 51 49 46 52 50 49 50 52 53 51 52 54
44 46 44 45 44 45 44 44 45 44 45 44 42 43 45 46 46 46 52 51 51 51 54 56 55 55 53 52 53 51 43 35 43 40 43 46 49 50 50 54 55 53 55
43 43 42 44 44 44 44 43 43 43 44 44 44 45 44 44 44 44 45 49 53 56 57 54 52 55 56 54 52 42 35 35 41 38 44 42 44 46 46 49 55 53 52